Location: Unspecified
(33.6682°S, 0.0000°E)
Time: 03:41:25
(UTC+00:00)

Vanguard 2 - All Passes

Search period start: 25 June 2019 00:00
Search period end: 05 July 2019 00:00
Orbit: 553 x 2939 km, 32.9° (Epoch: 21 June)

Date Brightness Start Highest point End Pass type
(mag) Time Alt. Az. Time Alt. Az. Time Alt. Az.
25 Jun - 02:13:03 10° WNW 02:15:40 12° NW 02:17:58 10° NNW night (unlit)
25 Jun - 15:26:41 10° NNW 15:40:29 32° NE 15:54:29 10° E daylight
25 Jun - 17:34:41 10° NW 17:52:13 63° NNE 18:07:02 10° E visible
25 Jun - 19:47:02 10° WNW 20:04:49 85° N 20:17:01 10° E visible
25 Jun - 22:01:18 10° W 22:16:35 80° NNW 22:25:44 10° ENE visible
26 Jun - 00:15:30 10° W 00:26:01 40° NW 00:32:34 10° NNE night (unlit)
26 Jun - 13:42:45 10° NNE 13:47:53 12° NE 13:53:17 10° ENE daylight
26 Jun - 15:43:16 10° NNW 15:58:14 40° NE 16:13:24 10° E daylight
26 Jun - 17:52:28 10° WNW 18:10:21 71° NNE 18:25:13 10° E visible
26 Jun - 20:05:25 10° W 20:23:07 87° N 20:35:04 10° E visible
26 Jun - 22:19:44 10° W 22:34:40 73° NNW 22:43:35 10° ENE visible
27 Jun - 00:34:13 10° W 00:43:31 30° NW 00:49:40 10° NNE night (unlit)
27 Jun - 13:55:59 10° N 14:05:26 19° NE 14:15:48 10° E daylight
27 Jun - 16:00:18 10° NW 16:16:04 49° NNE 16:32:01 10° E daylight
27 Jun - 18:10:28 10° WNW 18:28:35 78° NNE 18:43:23 10° E visible
27 Jun - 20:23:50 10° W 20:41:25 87° N 20:53:07 10° E visible
27 Jun - 22:38:10 10° W 22:52:36 63° NNW 23:01:19 10° NE visible
28 Jun - 00:53:20 10° W 01:00:52 21° NW 01:06:18 10° N night (unlit)
28 Jun - 14:11:23 10° N 14:22:58 26° NE 14:36:00 10° E daylight
28 Jun - 16:17:38 10° NW 16:33:59 58° NNE 16:50:25 10° E daylight
28 Jun - 18:28:38 10° WNW 18:46:52 83° N 19:01:31 10° E visible
28 Jun - 20:42:18 10° W 20:59:42 84° N 21:11:09 10° ENE visible
28 Jun - 22:56:38 10° W 23:10:24 52° NNW 23:18:53 10° NE visible
29 Jun - 01:13:22 10° WNW 01:18:08 14° NW 01:22:00 10° NNW night (unlit)
29 Jun - 14:27:39 10° NNW 14:40:31 34° NE 14:55:22 10° E daylight
29 Jun - 16:35:15 10° NW 16:52:01 66° NNE 17:08:42 10° E daylight
29 Jun - 18:46:55 10° W 19:05:13 87° N 19:19:39 10° E visible
29 Jun - 21:00:43 10° W 21:17:54 79° NNW 21:29:06 10° ENE visible
29 Jun - 23:15:13 10° W 23:28:02 42° NW 23:36:13 10° NNE visible
30 Jun - 12:43:26 10° NNE 12:48:36 13° NE 12:54:15 10° ENE daylight
30 Jun - 14:44:25 10° NNW 14:58:09 42° NE 15:14:14 10° E daylight
30 Jun - 16:53:04 10° WNW 17:10:11 74° NNE 17:26:57 10° E visible
30 Jun - 19:05:16 10° W 19:23:36 88° N 19:37:48 10° E visible
30 Jun - 21:19:08 10° W 21:36:00 71° NNW 21:46:57 10° ENE visible
30 Jun - 23:34:01 10° W 23:45:31 32° NW 23:53:14 10° NNE visible
01 Jul - 12:57:21 10° N 13:05:58 19° NE 13:16:11 10° E daylight
01 Jul - 15:01:34 10° NW 15:15:53 52° NNE 15:32:49 10° ESE daylight
01 Jul - 17:11:06 10° WNW 17:28:26 81° NNE 17:45:11 10° E visible
01 Jul - 19:23:39 10° W 19:41:57 86° N 19:55:54 10° E visible
01 Jul - 21:37:34 10° WSW 21:53:58 62° NNW 22:04:40 10° NE visible
01 Jul - 23:53:13 10° W 00:02:51 24° NW 00:09:48 10° N visible
02 Jul - 13:13:03 10° N 13:23:21 27° NE 13:36:13 10° E daylight
02 Jul - 15:18:59 10° NW 15:33:46 61° NNE 15:51:14 10° ESE daylight
02 Jul - 17:29:14 10° WNW 17:46:46 85° N 18:03:24 10° E visible
02 Jul - 19:42:02 10° W 20:00:17 83° NNW 20:13:57 10° ENE visible
02 Jul - 21:56:03 10° WSW 22:11:45 52° NNW 22:22:10 10° NE visible
03 Jul - 00:13:15 10° W 00:20:06 16° NW 00:25:33 10° NNW visible
03 Jul - 13:29:30 10° NNW 13:40:47 35° NE 13:55:28 10° E daylight
03 Jul - 15:36:40 10° WNW 15:51:47 69° NNE 16:09:36 10° E daylight
03 Jul - 17:47:29 10° W 18:05:09 87° N 18:21:37 10° E visible
03 Jul - 20:00:24 10° W 20:18:31 77° NNW 20:31:56 10° ENE visible
03 Jul - 22:14:40 10° W 22:29:23 42° NW 22:39:25 10° NNE visible
04 Jul - 11:45:32 10° NNE 11:49:38 12° NE 11:54:14 10° ENE daylight
04 Jul - 13:46:24 10° NNW 13:58:20 44° NE 14:14:18 10° E daylight
04 Jul - 15:54:31 10° WNW 16:09:56 77° NNE 16:27:55 10° E daylight
04 Jul - 18:05:46 10° W 18:23:34 88° N 18:39:50 10° E visible
04 Jul - 20:18:46 10° W 20:36:38 70° NNW 20:49:46 10° ENE visible
04 Jul - 22:33:32 10° W 22:46:52 33° NW 22:56:22 10° NNE visible
